Theta_e
303 297 292 295 296 294 292 290 289 292 296 295 294 295 297 301 302 300 302 301 301 300 307 314 321 324 324 324 325 325 324 325 324 323 322 322 321 323 323 323 324 324 323 323
295 291 294 296 298 296 294 292 290 292 295 295 293 292 296 298 300 302 302 303 304 304 301 307 315 321 323 324 324 325 325 325 324 324 323 323 323 324 324 324 323 323 323 322
287 288 295 294 293 292 291 291 291 290 293 294 291 289 292 295 300 301 303 304 305 305 304 304 305 315 321 323 323 324 325 325 325 325 324 323 323 321 322 322 322 322 322 322
291 295 291 291 291 291 287 292 292 291 289 283 290 280 287 289 292 297 300 302 304 305 305 307 307 306 317 321 325 325 325 326 326 326 324 322 321 320 322 323 324 323 322 322
286 288 288 288 291 294 290 292 290 289 287 286 285 282 283 288 287 290 295 300 303 305 306 304 304 307 309 318 321 324 325 325 326 326 326 323 322 324 325 324 324 323 322 323
286 291 291 290 292 294 293 290 290 289 287 280 283 283 283 285 288 288 292 297 301 303 305 307 308 308 307 312 318 322 323 324 325 326 325 324 323 323 323 323 323 323 323 321
285 287 291 294 288 292 292 286 273 278 277 276 284 282 285 289 290 292 292 295 298 300 302 305 306 307 307 305 313 318 321 321 324 325 325 325 324 324 324 324 323 322 321 322
281 279 288 293 290 286 288 288 277 269 273 276 283 280 285 291 295 296 298 299 300 300 302 303 306 308 308 306 307 316 318 320 322 324 324 325 326 325 325 325 324 323 323 323
281 281 287 290 292 292 287 284 289 279 276 276 281 284 290 293 293 294 295 297 297 299 302 303 304 306 307 306 306 312 316 319 321 322 323 324 325 325 324 325 324 323 324 323
282 278 284 288 291 292 290 291 283 284 274 271 278 280 281 287 290 293 292 293 295 297 299 301 302 304 305 306 307 309 315 317 319 321 323 323 323 324 325 325 322 323 323 323
285 281 282 287 286 284 286 285 285 285 282 275 273 278 286 289 291 290 291 293 294 296 298 299 300 302 303 304 305 306 311 316 318 320 321 322 323 323 324 323 323 322 322 321
286 283 275 280 288 289 288 286 286 280 276 280 280 280 292 291 292 293 294 296 298 298 297 294 295 297 298 299 301 304 309 314 318 319 320 320 322 322 322 322 322 322 321 320
287 280 268 273 278 283 284 287 288 287 284 279 276 279 291 291 291 293 291 292 295 298 292 294 294 294 295 296 298 302 308 314 317 319 319 319 320 320 321 321 322 320 321 319
292 281 279 274 276 280 280 285 287 285 281 280 281 282 287 290 291 293 294 296 297 298 299 299 293 293 292 292 295 301 308 313 316 318 318 318 319 319 320 321 321 321 321 319
288 275 281 282 281 283 284 285 285 284 285 281 283 284 288 291 292 293 296 296 296 297 298 295 290 291 292 292 293 301 308 312 315 316 317 317 319 319 320 319 318 318 317 317
289 282 281 277 283 284 282 283 285 286 286 285 286 285 292 294 295 294 295 295 295 296 296 297 293 292 292 292 293 296 303 306 310 314 315 315 312 312 314 311 309 307 306 307
287 284 278 271 280 279 271 281 282 283 285 286 282 287 291 291 292 293 295 296 296 297 298 299 298 292 293 293 295 295 299 301 306 309 304 304 304 303 302 300 299 297 297 297
286 284 282 270 271 269 280 282 284 283 285 287 288 289 291 292 295 296 296 296 297 298 298 295 292 293 293 294 295 295 295 297 297 295 295 294 296 294 293 294 294 292 293 294
284 280 276 271 264 273 279 279 281 282 282 287 287 289 291 293 294 293 297 298 298 299 300 297 293 292 294 295 295 294 291 291 291 291 291 291 293 292 292 291 291 291 292 291
284 283 273 266 261 263 276 280 283 283 276 286 287 287 289 291 287 292 299 297 297 296 293 292 291 291 292 291 291 291 289 289 289 289 289 290 291 291 291 290 289 287 290 288
272 276 275 265 264 270 280 283 286 273 278 286 288 290 291 288 292 295 297 297 293 289 289 289 289 289 287 287 289 288 288 287 287 287 288 289 290 289 290 288 289 288 288 288
275 273 271 269 267 270 283 283 281 285 286 286 288 288 288 289 289 291 293 296 290 288 286 286 286 284 284 286 287 286 285 285 286 288 288 288 288 288 288 288 287 287 288 287
275 279 274 278 277 283 284 286 288 287 287 288 286 289 287 287 288 289 289 292 288 285 283 282 282 280 280 283 286 284 283 284 286 287 286 286 286 287 287 287 287 287 287 287
279 281 279 279 281 282 285 287 287 285 285 284 284 284 284 284 286 286 287 288 284 282 281 280 280 279 278 280 282 282 283 284 286 286 286 286 286 286 286 287 287 287 286 286
279 282 280 280 283 283 286 286 284 282 281 282 282 282 282 283 284 285 285 284 282 280 279 280 279 277 276 278 280 282 284 286 285 285 284 285 285 285 284 285 285 285 285 287
281 282 281 279 284 285 285 283 281 280 281 280 279 280 281 281 282 283 282 281 280 279 278 277 276 275 274 276 277 280 284 285 284 282 283 283 284 284 283 283 283 287 287 287
Wind_Speed
3 5 11 10 7 3 7 4 1 3 5 6 7 14 10 13 14 11 13 12 13 12 15 10 12 15 14 14 16 17 17 18 13 11 12 11 13 11 9 9 12 13 11 12
4 18 6 3 8 7 6 7 8 3 3 2 11 27 18 11 18 18 19 17 15 12 9 16 12 14 18 19 20 19 20 17 16 13 12 9 11 10 10 9 11 12 13 13
7 2 12 7 5 7 8 9 7 13 7 5 9 26 20 10 18 19 17 18 17 19 19 19 17 18 18 20 21 21 22 22 20 18 11 8 5 3 9 10 10 11 13 13
13 10 4 5 9 8 11 3 6 10 7 6 4 15 15 4 12 11 17 19 19 18 18 19 18 16 20 22 21 21 21 22 20 20 16 20 16 14 12 12 11 11 14 14
7 9 10 5 12 10 10 6 6 5 4 7 10 10 5 4 8 9 11 15 14 14 18 20 19 19 19 17 19 20 22 21 22 22 22 17 17 14 10 10 13 14 12 15
5 1 6 8 6 11 5 4 3 4 3 10 11 11 15 11 14 5 5 12 13 13 15 18 19 17 17 16 17 18 22 24 23 23 26 25 24 19 14 14 13 11 11 10
7 8 1 4 7 5 5 7 1 4 6 10 10 10 28 9 9 11 10 12 13 11 12 15 17 17 16 17 17 17 21 23 24 26 25 27 26 23 22 18 14 15 13 11
11 6 17 10 7 9 19 13 7 11 8 3 4 13 15 0 8 13 19 20 15 15 15 17 16 18 17 17 19 20 21 23 23 24 26 25 25 16 16 18 14 13 13 15
12 10 3 2 6 10 7 15 14 2 0 2 6 11 18 21 22 17 16 11 15 16 18 21 16 18 16 14 19 21 22 23 23 24 23 24 22 21 19 21 18 14 14 12
7 2 2 5 4 10 7 5 6 8 6 7 9 13 17 15 21 18 13 15 13 13 15 17 15 14 16 15 18 20 22 25 25 24 21 19 22 22 20 18 18 18 15 14
5 4 2 6 9 8 5 8 4 3 6 5 4 9 9 20 20 19 12 9 9 12 16 14 12 11 15 16 17 19 21 22 21 20 21 21 19 21 19 17 18 17 14 15
6 3 5 7 3 9 8 15 19 7 6 4 10 19 21 24 27 25 26 21 18 17 16 9 11 15 15 17 17 19 19 20 20 20 20 21 19 19 19 19 18 15 16 15
9 5 3 9 6 4 8 14 13 19 5 14 13 13 24 20 25 24 13 16 18 20 16 15 13 15 16 16 16 17 18 19 18 18 19 18 18 18 20 19 16 14 15 14
17 5 14 18 6 6 7 17 20 15 12 22 18 26 34 36 36 20 21 21 24 25 22 17 13 17 15 13 14 15 15 15 15 16 18 19 19 19 18 17 16 15 15 14
13 8 11 16 6 2 4 7 15 20 22 18 24 18 30 40 21 17 24 24 21 23 22 16 13 13 13 11 9 9 10 11 13 15 17 18 17 15 15 14 13 12 13 11
8 4 9 10 10 8 10 12 19 18 20 17 25 30 43 29 30 27 33 30 28 27 25 20 16 14 13 14 9 10 10 9 9 15 16 14 13 12 13 11 11 11 9 9
12 7 5 6 5 5 5 25 15 16 19 24 23 36 34 23 30 32 28 27 27 26 25 22 21 13 13 11 8 10 10 5 9 12 9 10 12 12 10 10 11 10 10 8
16 11 3 3 3 4 10 1 9 18 22 22 26 28 26 26 30 26 27 27 29 24 21 15 12 11 10 6 7 6 5 7 8 6 6 7 9 10 9 10 10 9 7 9
4 6 4 6 5 9 16 7 5 8 29 15 23 27 26 27 23 25 25 20 25 26 19 13 8 8 6 7 5 5 4 5 6 7 8 8 11 11 11 11 11 9 11 9
2 3 5 3 6 10 1 4 5 2 21 17 18 20 21 12 11 17 24 11 14 12 8 9 6 3 4 1 5 6 6 6 4 5 7 7 9 10 10 11 11 5 8 10
4 3 10 4 6 11 8 8 2 2 16 4 6 7 9 5 9 18 23 16 3 2 5 3 1 4 5 4 6 8 6 5 2 5 8 9 9 10 11 8 9 9 11 11
11 11 7 3 4 17 10 4 13 10 4 4 9 6 6 12 17 19 17 19 6 5 4 2 3 1 5 4 12 7 7 2 4 6 10 10 10 8 8 12 10 9 11 12
7 11 9 14 12 9 8 11 10 3 5 8 8 15 9 16 19 18 16 15 6 4 3 3 6 3 5 5 13 10 4 3 6 7 10 10 10 8 8 11 10 9 9 9
6 5 9 4 10 10 10 7 7 3 4 5 8 13 11 14 17 18 17 13 6 4 4 2 8 7 6 5 13 10 4 5 8 10 10 9 9 10 9 8 7 7 7 8
8 10 9 12 14 5 11 8 4 5 4 5 7 8 12 11 17 13 15 10 4 3 5 2 5 5 8 4 8 8 6 6 9 10 10 11 9 10 11 9 7 8 6 7
8 10 10 9 4 7 6 4 2 6 9 4 6 14 9 8 14 12 9 5 3 5 5 4 6 7 8 5 7 5 6 9 8 10 7 9 10 9 9 11 13 22 21 22
Wind_Direction
209 209 207 195 198 149 114 125 122 298 307 332 269 275 256 261 275 266 267 257 250 239 247 243 210 213 211 205 200 203 198 200 185 190 192 200 208 209 211 210 209 207 201 197
188 236 216 204 183 205 231 243 236 240 283 333 300 287 276 244 255 248 251 256 255 243 240 249 218 205 206 208 207 203 206 197 197 194 200 204 197 210 208 207 205 207 202 196
196 280 191 176 181 193 225 230 249 257 285 274 302 286 278 241 228 243 245 244 245 237 234 235 229 211 206 210 211 210 205 198 198 203 190 195 171 188 194 201 207 204 199 200
239 226 122 175 215 191 232 180 230 258 261 257 129 287 288 231 240 223 239 235 238 243 244 247 241 228 213 211 211 211 210 206 200 194 196 196 201 202 208 200 203 199 197 201
207 173 186 190 216 184 229 148 178 189 232 276 250 279 261 256 270 245 242 248 244 242 235 239 240 239 230 224 215 209 208 208 205 195 198 200 206 212 201 198 195 199 196 202
203 205 172 210 160 185 180 88 123 154 183 249 195 199 255 219 247 265 212 245 250 245 239 240 246 244 240 225 221 214 209 207 206 201 200 199 206 204 198 199 196 198 200 193
181 207 191 166 123 157 179 129 274 206 207 239 178 186 257 291 280 284 260 257 265 264 249 247 239 246 242 227 219 216 216 216 206 206 202 202 204 205 201 197 198 191 201 196
192 221 199 187 178 176 201 195 177 192 204 208 220 221 255 106 270 259 258 266 273 265 260 254 249 243 244 233 220 215 215 218 213 209 208 208 205 202 206 202 197 199 199 204
187 230 150 169 154 145 172 208 212 25 225 54 213 273 286 269 271 266 262 261 267 273 270 270 262 260 261 238 226 217 220 218 213 212 209 206 209 201 201 203 200 200 200 199
204 149 335 177 130 241 154 161 162 196 223 224 235 254 253 293 287 271 275 275 275 265 273 276 276 261 251 239 232 224 220 217 213 207 210 212 205 201 201 201 198 203 200 191
144 112 173 138 208 173 187 236 217 186 179 212 247 250 217 254 264 278 288 256 271 278 272 271 273 255 252 249 241 232 223 219 214 210 205 208 208 202 199 198 200 198 192 186
177 118 182 199 189 186 205 217 217 220 237 250 254 264 268 275 281 284 289 292 286 276 287 270 263 269 269 257 247 235 226 216 212 206 205 205 204 200 197 198 198 186 189 184
161 210 53 335 347 350 217 223 217 225 275 246 251 264 271 273 276 276 293 296 291 290 279 279 282 282 274 267 256 242 228 218 208 202 203 203 200 197 198 197 189 177 186 184
165 183 207 222 193 149 196 210 215 207 232 242 242 260 273 274 265 290 285 275 275 278 283 287 283 280 280 266 257 250 233 221 209 200 200 198 198 197 198 192 184 175 184 180
170 214 214 237 199 168 226 229 218 222 238 241 260 253 264 260 301 292 282 281 275 278 280 279 276 280 284 265 244 251 241 217 199 201 199 199 196 194 192 184 177 169 170 176
183 235 189 260 218 240 268 242 221 225 235 245 250 259 246 283 275 273 266 270 273 269 273 273 272 276 278 260 241 233 225 208 185 204 203 190 175 169 182 161 151 152 152 154
180 191 157 251 150 142 306 239 231 230 228 227 242 247 269 270 269 264 273 276 268 265 264 265 272 260 260 249 230 234 219 159 188 203 182 168 156 156 161 145 143 141 140 124
187 202 150 207 55 213 248 296 217 224 240 227 243 256 254 252 264 280 277 273 276 268 266 255 248 255 246 253 199 195 149 177 175 174 151 147 139 133 131 130 130 119 119 123
156 150 154 177 189 301 286 227 208 180 260 215 232 251 259 265 281 280 277 276 268 268 267 253 233 239 228 215 193 140 127 130 147 160 149 148 135 134 136 131 128 123 120 116
135 86 133 126 156 218 165 220 236 228 276 239 255 262 273 296 283 284 300 294 266 250 225 230 215 189 198 148 143 135 105 112 144 139 123 115 114 126 127 120 119 96 101 108
152 178 211 199 237 274 220 255 75 180 261 254 237 250 287 266 272 297 303 297 287 220 260 326 280 156 141 144 110 84 96 108 109 105 107 101 101 108 109 108 107 112 113 111
166 164 194 174 204 261 176 132 195 222 266 279 291 256 270 292 297 302 305 304 243 191 174 159 133 133 75 117 101 92 86 97 83 105 104 103 104 109 112 112 104 110 116 112
201 182 177 187 208 216 197 215 226 194 221 282 298 304 308 298 295 295 291 303 277 192 176 118 122 44 19 62 106 106 105 101 104 104 97 95 96 99 100 107 112 111 110 113
241 167 226 82 217 223 238 247 251 272 241 307 284 287 301 291 295 292 295 283 239 183 161 167 107 94 46 24 94 99 118 121 115 108 103 104 107 101 92 89 96 105 110 112
191 152 208 249 263 320 268 237 234 278 243 276 291 270 283 292 289 291 295 287 238 230 110 103 114 127 91 62 87 108 112 124 123 122 121 113 104 101 97 86 88 88 67 104
185 198 200 231 193 196 228 139 36 296 294 296 292 305 292 290 288 303 289 295 211 160 136 121 116 112 92 87 68 69 117 134 135 117 127 123 111 109 108 108 100 85 88 89